| time (UTC) | temp F | wind direction | speed MPH | gust MPH | rain 1hr in | rain 24hr in | rain mn in | humidity % | barometer mb |
| 20260507150516 | 57 | 180 | 4.0 | 6.0 | 0.00 | 0.00 | 0.00 | 55 | |
| 20260507145517 | 57 | 158 | 4.0 | 5.0 | 0.00 | 0.00 | 0.00 | 55 | |
| 20260507144516 | 57 | 180 | 3.0 | 5.0 | 0.00 | 0.00 | 0.00 | 56 | |
| 20260507143517 | 57 | 158 | 5.0 | 8.0 | 0.00 | 0.00 | 0.00 | 55 | |
| 20260507142516 | 57 | 180 | 2.0 | 3.0 | 0.00 | 0.00 | 0.00 | 54 | |
| 20260507141516 | 57 | 158 | 3.0 | 5.0 | 0.00 | 0.00 | 0.00 | 56 | |
| 20260507140517 | 57 | 225 | 3.0 | 5.0 | 0.00 | 0.00 | 0.00 | 58 | |
| 20260507135516 | 57 | 225 | 3.0 | 5.0 | 0.00 | 0.00 | 0.00 | 56 | |
| 20260507134516 | 57 | 203 | 3.0 | 5.0 | 0.00 | 0.00 | 0.00 | 56 | |
| 20260507133536 | 57 | 158 | 1.0 | 3.0 | 0.00 | 0.00 | 0.00 | 56 | |
| 20260507132516 | 57 | 225 | 5.0 | 7.0 | 0.00 | 0.00 | 0.00 | 56 | |
| 20260507131516 | 58 | 180 | 2.0 | 4.0 | 0.00 | 0.00 | 0.00 | 53 | |
| 20260507130516 | 58 | 203 | 3.0 | 5.0 | 0.00 | 0.00 | 0.00 | 52 | |
| 20260507125516 | 57 | 180 | 5.0 | 7.0 | 0.00 | 0.00 | 0.00 | 56 | |
| 20260507124516 | 56 | 113 | 2.0 | 3.0 | 0.00 | 0.00 | 0.00 | 59 | |
| 20260507123516 | 56 | 135 | 2.0 | 3.0 | 0.00 | 0.00 | 0.00 | 59 | |
| 20260507122516 | 57 | 180 | 2.0 | 5.0 | 0.00 | 0.00 | 0.00 | 60 | |
| 20260507121516 | 57 | 180 | 4.0 | 7.0 | 0.00 | 0.00 | 0.00 | 60 | |
| 20260507120536 | 56 | 135 | 3.0 | 6.0 | 0.00 | 0.00 | 0.00 | 59 | |
| 20260507115516 | 56 | 158 | 4.0 | 6.0 | 0.00 | 0.00 | 0.00 | 62 | |
| 20260507114516 | 56 | 180 | 2.0 | 6.0 | 0.00 | 0.00 | 0.00 | 63 | |
| 20260507113516 | 56 | 135 | 2.0 | 5.0 | 0.00 | 0.00 | 0.00 | 64 | |
| 20260507112516 | 56 | 180 | 4.0 | 7.0 | 0.00 | 0.00 | 0.00 | 65 | |
| 20260507111516 | 55 | 180 | 4.0 | 6.0 | 0.00 | 0.00 | 0.00 | 66 | |
| 20260507110516 | 55 | 180 | 3.0 | 5.0 | 0.00 | 0.00 | 0.00 | 67 | |
| 20260507105516 | 55 | 158 | 4.0 | 5.0 | 0.00 | 0.00 | 0.00 | 69 | |
| 20260507104516 | 54 | 135 | 3.0 | 5.0 | 0.00 | 0.00 | 0.00 | 70 | |
| 20260507103516 | 54 | 135 | 3.0 | 6.0 | 0.00 | 0.00 | 0.00 | 71 | |
| 20260507102536 | 54 | 180 | 2.0 | 5.0 | 0.00 | 0.00 | 0.00 | 71 | |
| 20260507101516 | 53 | 135 | 3.0 | 5.0 | 0.00 | 0.00 | 0.00 | 72 | |
| 20260507100536 | 52 | 180 | 2.0 | 3.0 | 0.00 | 0.00 | 0.00 | 73 | |
| 20260507095516 | 52 | 158 | 2.0 | 4.0 | 0.00 | 0.00 | 0.00 | 74 | |
| 20260507094516 | 51 | 135 | 3.0 | 4.0 | 0.00 | 0.00 | 0.00 | 75 | |
| 20260507093516 | 52 | 203 | 1.0 | 2.0 | 0.00 | 0.00 | 0.00 | 76 | |
| 20260507092556 | 51 | 158 | 2.0 | 4.0 | 0.00 | 0.00 | 0.00 | 77 | |
| 20260507091516 | 51 | 180 | 4.0 | 7.0 | 0.00 | 0.00 | 0.00 | 77 | |
| 20260507090516 | 51 | 225 | 3.0 | 7.0 | 0.00 | 0.00 | 0.00 | 78 | |
| 20260507085516 | 50 | 135 | 4.0 | 8.0 | 0.00 | 0.00 | 0.00 | 79 | |
| 20260507084519 | 50 | 158 | 3.0 | 5.0 | 0.00 | 0.00 | 0.00 | 79 | |
| 20260507083516 | 50 | 158 | 3.0 | 6.0 | 0.00 | 0.00 | 0.00 | 80 | |
| 20260507082516 | 50 | 135 | 1.0 | 2.0 | 0.00 | 0.00 | 0.00 | 81 | |
| 20260507081516 | 49 | 158 | 4.0 | 6.0 | 0.00 | 0.00 | 0.00 | 81 | |
| 20260507080516 | 49 | 135 | 2.0 | 3.0 | 0.00 | 0.00 | 0.00 | 83 | |
| 20260507075516 | 49 | 158 | 2.0 | 5.0 | 0.00 | 0.00 | 0.00 | 84 | |
| 20260507074516 | 48 | 158 | 2.0 | 4.0 | 0.00 | 0.00 | 0.00 | 84 | |
| 20260507073515 | 48 | 203 | 1.0 | 4.0 | 0.00 | 0.00 | 0.00 | 84 | |
| 20260507072516 | 48 | 158 | 3.0 | 5.0 | 0.00 | 0.00 | 0.00 | 83 | |
| 20260507071517 | 48 | 0.0 | 2.0 | 0.00 | 0.00 | 0.00 | 86 | ||
| 20260507070516 | 47 | 158 | 4.0 | 7.0 | 0.00 | 0.00 | 0.00 | 87 | |
| 20260507065518 | 46 | 158 | 1.0 | 3.0 | 0.00 | 0.00 | 0.00 | 88 | |
| 20260507064516 | 46 | 180 | 3.0 | 4.0 | 0.00 | 0.00 | 0.00 | 88 | |
| 20260507063517 | 45 | 0.0 | 1.0 | 0.00 | 0.00 | 0.00 | 91 | ||
| 20260507062518 | 44 | 0.0 | 4.0 | 0.00 | 0.00 | 0.00 | 93 | ||
| 20260507061517 | 42 | 0.0 | 0.0 | 0.00 | 0.00 | 0.00 | 95 | ||
| 20260507060518 | 41 | 0.0 | 0.0 | 0.00 | 0.00 | 0.00 | 95 | ||
| 20260507055558 | 39 | 0.0 | 1.0 | 0.00 | 0.00 | 0.00 | 95 | ||
| 20260507054539 | 38 | 0.0 | 1.0 | 0.00 | 0.00 | 0.00 | 95 | ||
| 20260507053517 | 37 | 0.0 | 0.0 | 0.00 | 0.00 | 0.00 | 95 | ||
| 20260507052517 | 37 | 0.0 | 1.0 | 0.00 | 0.00 | 0.00 | 95 | ||
| 20260507051517 | 36 | 0.0 | 0.0 | 0.00 | 0.00 | 0.00 | 95 | ||
| 20260507050517 | 36 | 0.0 | 0.0 | 0.00 | 0.00 | 0.00 | 95 | ||
| 20260507045517 | 36 | 0.0 | 1.0 | 0.00 | 0.00 | 0.00 | 95 | ||
| 20260507044537 | 36 | 0.0 | 1.0 | 0.00 | 0.00 | 0.00 | 95 | ||
| 20260507043517 | 35 | 0.0 | 1.0 | 0.00 | 0.00 | 0.00 | 95 | ||
| 20260507042517 | 35 | 0.0 | 0.0 | 0.00 | 0.00 | 0.00 | 95 | ||
| 20260507041517 | 36 | 0.0 | 0.0 | 0.00 | 0.00 | 0.00 | 95 | ||
| 20260507040537 | 36 | 0.0 | 1.0 | 0.00 | 0.00 | 0.00 | 95 | ||
| 20260507035558 | 36 | 0.0 | 0.0 | 0.00 | 0.00 | 0.00 | 95 | ||
| 20260507034517 | 36 | 0.0 | 0.0 | 0.00 | 0.00 | 0.00 | 95 | ||
| 20260507033517 | 35 | 0.0 | 0.0 | 0.00 | 0.00 | 0.00 | 95 | ||
| 20260507032517 | 35 | 0.0 | 0.0 | 0.00 | 0.00 | 0.00 | 95 | ||
| 20260507031517 | 35 | 0.0 | 0.0 | 0.00 | 0.00 | 0.00 | 95 | ||
| 20260507030517 | 35 | 0.0 | 0.0 | 0.00 | 0.00 | 0.00 | 95 | ||
| 20260507025517 | 35 | 0.0 | 0.0 | 0.00 | 0.00 | 0.00 | 95 | ||
| 20260507024537 | 35 | 0.0 | 0.0 | 0.00 | 0.00 | 0.00 | 94 | ||
| 20260507023517 | 36 | 0.0 | 0.0 | 0.00 | 0.00 | 0.00 | 95 | ||
| 20260507022517 | 36 | 0.0 | 0.0 | 0.00 | 0.00 | 0.00 | 95 | ||
| 20260507021517 | 36 | 0.0 | 0.0 | 0.00 | 0.00 | 0.00 | 95 | ||
| 20260507020517 | 36 | 0.0 | 0.0 | 0.00 | 0.00 | 0.00 | 94 | ||
| 20260507015517 | 36 | 0.0 | 0.0 | 0.00 | 0.00 | 0.00 | 94 | ||
| 20260507014517 | 36 | 0.0 | 0.0 | 0.00 | 0.00 | 0.00 | 95 | ||
| 20260507013517 | 36 | 0.0 | 0.0 | 0.00 | 0.00 | 0.00 | 94 | ||
| 20260507012537 | 36 | 0.0 | 0.0 | 0.00 | 0.00 | 0.00 | 94 | ||
| 20260507011517 | 36 | 0.0 | 0.0 | 0.00 | 0.00 | 0.00 | 94 | ||
| 20260507010517 | 37 | 0.0 | 0.0 | 0.00 | 0.00 | 0.00 | 94 | ||
| 20260507005517 | 37 | 0.0 | 0.0 | 0.00 | 0.00 | 0.00 | 94 | ||
| 20260507004537 | 37 | 0.0 | 0.0 | 0.00 | 0.00 | 0.00 | 94 | ||
| 20260507003517 | 37 | 0.0 | 0.0 | 0.00 | 0.00 | 0.00 | 94 | ||
| 20260507002517 | 37 | 0.0 | 0.0 | 0.00 | 0.00 | 0.00 | 94 | ||
| 20260507001517 | 37 | 0.0 | 0.0 | 0.00 | 0.00 | 0.00 | 94 | ||
| 20260507000517 | 37 | 0.0 | 0.0 | 0.00 | 0.00 | 0.00 | 93 | ||
| 20260506235516 | 38 | 0.0 | 0.0 | 0.00 | 0.00 | 0.00 | 93 | ||
| 20260506234517 | 38 | 0.0 | 0.0 | 0.00 | 0.00 | 0.00 | 93 | ||
| 20260506233516 | 39 | 0.0 | 0.0 | 0.00 | 0.00 | 0.00 | 93 | ||
| 20260506232517 | 39 | 0.0 | 0.0 | 0.00 | 0.00 | 0.00 | 93 | ||
| 20260506231517 | 38 | 0.0 | 0.0 | 0.00 | 0.00 | 0.00 | 91 | ||
| 20260506230516 | 38 | 0.0 | 0.0 | 0.00 | 0.00 | 0.00 | 91 | ||
| 20260506225537 | 39 | 0.0 | 0.0 | 0.00 | 0.00 | 0.00 | 91 | ||
| 20260506224536 | 39 | 0.0 | 0.0 | 0.00 | 0.00 | 0.00 | 91 | ||
| 20260506223516 | 40 | 0.0 | 1.0 | 0.00 | 0.00 | 0.00 | 90 | ||
| 20260506222517 | 40 | 0.0 | 0.0 | 0.00 | 0.00 | 0.00 | 90 | ||
| 20260506221536 | 41 | 0.0 | 0.0 | 0.00 | 0.00 | 0.00 | 89 | ||
| 20260506220516 | 41 | 0.0 | 0.0 | 0.00 | 0.00 | 0.00 | 89 | ||
| 20260506215516 | 41 | 0.0 | 0.0 | 0.00 | 0.00 | 0.00 | 88 | ||
| 20260506214516 | 42 | 0.0 | 1.0 | 0.00 | 0.00 | 0.00 | 88 | ||
| 20260506213556 | 42 | 68 | 1.0 | 2.0 | 0.00 | 0.00 | 0.00 | 87 | |
| 20260506212537 | 42 | 0.0 | 1.0 | 0.00 | 0.00 | 0.00 | 87 | ||
| 20260506211516 | 43 | 90 | 1.0 | 2.0 | 0.00 | 0.00 | 0.00 | 86 | |
| 20260506210517 | 43 | 68 | 2.0 | 3.0 | 0.00 | 0.00 | 0.00 | 86 | |
| 20260506205536 | 43 | 68 | 2.0 | 2.0 | 0.00 | 0.00 | 0.00 | 85 | |
| 20260506204516 | 43 | 90 | 1.0 | 2.0 | 0.00 | 0.00 | 0.00 | 84 | |
| 20260506203516 | 44 | 68 | 2.0 | 3.0 | 0.00 | 0.00 | 0.00 | 84 | |
| 20260506202516 | 44 | 68 | 3.0 | 4.0 | 0.00 | 0.00 | 0.00 | 83 | |
| 20260506201516 | 45 | 68 | 1.0 | 4.0 | 0.00 | 0.00 | 0.00 | 82 | |
| 20260506200517 | 45 | 68 | 2.0 | 3.0 | 0.00 | 0.00 | 0.00 | 81 | |
| 20260506195516 | 46 | 68 | 2.0 | 3.0 | 0.00 | 0.00 | 0.00 | 80 | |
| 20260506194516 | 46 | 68 | 2.0 | 4.0 | 0.00 | 0.00 | 0.00 | 79 | |
| 20260506193516 | 46 | 68 | 3.0 | 5.0 | 0.00 | 0.00 | 0.00 | 78 | |
| 20260506192516 | 47 | 68 | 5.0 | 7.0 | 0.00 | 0.00 | 0.00 | 78 | |
| 20260506191516 | 47 | 68 | 4.0 | 7.0 | 0.00 | 0.00 | 0.00 | 78 | |
| 20260506190516 | 47 | 68 | 3.0 | 6.0 | 0.00 | 0.00 | 0.00 | 78 | |
| 20260506185516 | 47 | 68 | 3.0 | 5.0 | 0.00 | 0.00 | 0.00 | 77 | |
| 20260506184516 | 48 | 68 | 3.0 | 4.0 | 0.00 | 0.00 | 0.00 | 77 | |
| 20260506183536 | 48 | 68 | 3.0 | 5.0 | 0.00 | 0.00 | 0.00 | 76 | |
| 20260506182516 | 48 | 90 | 1.0 | 3.0 | 0.00 | 0.00 | 0.00 | 76 | |
| 20260506181536 | 48 | 68 | 5.0 | 7.0 | 0.00 | 0.00 | 0.00 | 75 | |
| 20260506180516 | 49 | 68 | 4.0 | 7.0 | 0.00 | 0.00 | 0.00 | 75 | |
| 20260506175536 | 49 | 68 | 1.0 | 3.0 | 0.00 | 0.00 | 0.00 | 75 | |
| 20260506174516 | 49 | 68 | 3.0 | 5.0 | 0.00 | 0.00 | 0.00 | 74 | |
| 20260506173556 | 49 | 68 | 5.0 | 7.0 | 0.00 | 0.00 | 0.00 | 74 | |
| 20260506172516 | 49 | 68 | 2.0 | 4.0 | 0.00 | 0.00 | 0.00 | 74 | |
| 20260506171516 | 49 | 68 | 4.0 | 9.0 | 0.00 | 0.00 | 0.00 | 72 | |
| 20260506170516 | 50 | 68 | 3.0 | 5.0 | 0.00 | 0.00 | 0.00 | 72 | |
| 20260506165516 | 50 | 45 | 2.0 | 5.0 | 0.00 | 0.00 | 0.00 | 71 | |
| 20260506164516 | 50 | 68 | 3.0 | 4.0 | 0.00 | 0.00 | 0.00 | 71 | |
| 20260506163516 | 50 | 68 | 4.0 | 7.0 | 0.00 | 0.00 | 0.00 | 72 | |
| 20260506162516 | 50 | 68 | 2.0 | 3.0 | 0.00 | 0.00 | 0.00 | 71 | |
| 20260506161516 | 50 | 68 | 4.0 | 6.0 | 0.00 | 0.00 | 0.00 | 71 | |
| 20260506160536 | 50 | 68 | 6.0 | 7.0 | 0.00 | 0.00 | 0.00 | 71 | |
| 20260506155516 | 51 | 90 | 5.0 | 8.0 | 0.00 | 0.00 | 0.00 | 71 | |
| 20260506154516 | 50 | 68 | 6.0 | 9.0 | 0.00 | 0.00 | 0.00 | 72 | |
| 20260506153516 | 50 | 68 | 4.0 | 6.0 | 0.00 | 0.00 | 0.00 | 71 | |
| 20260506152516 | 51 | 68 | 4.0 | 7.0 | 0.00 | 0.00 | 0.00 | 70 | |
| 20260506151516 | 51 | 68 | 4.0 | 7.0 | 0.00 | 0.00 | 0.00 | 68 |